List of Registration Certificates of Packaged Commodities
 
S.No.Application NoName of Firm/CompanyFirm/Company TypeIssued DateCertificate No.
1 20047 NUMI INTERNATIONAL PRIVATE LIMITED Packers 26/02/2024 GOI/HR/2024/1259
2 20045 DURASUN SOLAR SOLUTIONS PRIVATE LIMITED Importers 26/02/2024 GOI/KA/2024/1258
3 20044 TITINS NUTRITIONS PRIVATE LIMITED Manufacturer & Packers 26/02/2024 GOI/HR/2024/1257
4 20043 ASTRA CORP Importers 26/02/2024 GOI/WB/2024/1256
5 20040 DARSH ENTERPRISES Importers 26/02/2024 GOI/MH/2024/1255
6 20039 AJ INDUSTRIAL TRADERS Importers 26/02/2024 GOI/HR/2024/1254
7 20038 GK INNOVATIVE ENTERPRISE Importers 26/02/2024 GOI/TN/2024/1253
8 20037 KAMALAKSHI MARKETING PRIVATE LIMITED Importers 26/02/2024 GOI/MH/2024/1252
9 20036 ARION TECH SOL PRIVATE LIMITED Importers 26/02/2024 GOI/GJ/2024/1251
10 20033 FINETECH LAB CONSUMABLES INDIA PRIVATE LIMITED Importers 26/02/2024 GOI/AP/2024/1249
11 20032 E2E NETWORKS LIMITED Importers 26/02/2024 GOI/UP/2024/1248
12 20030 ARJUN PHARMATECH Importers 26/02/2024 GOI/MH/2024/1247
13 20029 MEGASLOT TRADING PRIVATE LIMITED Importers 26/02/2024 GOI/MH/2024/1246
14 20028 JAY ENTERPRISE Importers 26/02/2024 GOI/GJ/2024/1245
15 20027 WONDER PAKAGING Importers 26/02/2024 GOI/DL/2024/1244
16 20026 SHIMATO ENTERPRISES PRIVATE LIMITED Importers 26/02/2024 GOI/TN/2024/1243
17 20025 MOHAN LAL AMIR CHAND Importers 26/02/2024 GOI/DL/2024/1242
18 20060 FCG HI-TECH PRIVATE LIMITED Importers 26/02/2024 GOI/GJ/2024/1236
19 20041 LYALLPUR SNACK FOODS Manufacturer & Packers 26/02/2024 GOI/PB/2024/1229
20 19416 SOWAR PRIVATE LIMITED Importers 26/02/2024 GOI/DL/2024/1228
21 20023 EXPERIA INTERIO Importers 23/02/2024 GOI/MH/2024/1241
22 20022 VALUETREE INDIA PRIVATE LIMITED Importers 23/02/2024 GOI/MH/2024/1240
23 20021 J AND B GOLF Importers 23/02/2024 GOI/DL/2024/1239
24 20020 ANS OVERSEAS Importers 23/02/2024 GOI/MH/2024/1238
25 20019 PROSERV INDIA OIL & GAS SOLUTIONS LLP Importers 23/02/2024 GOI/TN/2024/1237
26 20018 PID IMPORTS INDIA PRIVATE LIMITED Importers 23/02/2024 GOI/MH/2024/1234
27 20017 MAHIR CORPORATION Importers 23/02/2024 GOI/MH/2024/1233
28 20016 IMEDD-INNOVATIVE MEDICAL DEVICES Importers 23/02/2024 GOI/TN/2024/1232
29 20015 CADENCE AUDIO LLP Importers 23/02/2024 GOI/MH/2024/1231
30 20008 WINDSON INDUSTRIES Importers 23/02/2024 GOI/GJ/2024/1220
31 19839 TASA INTERNATIONAL Manufacturer & Packers 23/02/2024 GOI/GJ/2024/1230
32 20014 JAI CHANDA ELECTRICALS Importers 23/02/2024 GOI/DL/2024/1227
33 20013 IMPRO TECHNOLOGIES Importers 23/02/2024 GOI/TN/2024/1223
34 20012 SHIELD HEALTH CARE PRIVATE LIMITED Importers 23/02/2024 GOI/TN/2024/1226
35 20011 KAPOOR FREIGHT CARRIERS PRIVATE LIMITED Packers 23/02/2024 GOI/HR/2024/1222
36 20009 BLUMAPLE LLP Importers 23/02/2024 GOI/TS/2024/1221
37 20007 NAS CONTRACTS PRIVATE LIMITED Importers 23/02/2024 GOI/MH/2024/1219
38 20006 DIGITAL AUTOMATION SYSTEMS Importers 23/02/2024 GOI/GJ/2024/1218
39 20004 MAHADHAN AGRITECH LIMITED Importers 23/02/2024 GOI/MH/2024/1217
40 20003 RATERIA FABRICS PRIVATE LTD Importers 23/02/2024 GOI/DL/2024/1216
41 20002 DOMINAR ELECTRONICS AND SOLUTIONS LLP Importers 23/02/2024 GOI/UP/2024/1215
42 19999 REDFOXX Importers 23/02/2024 GOI/MH/2024/1214
43 19998 VETMIN NUTRITION PRIVATE LIMITED Importers 23/02/2024 GOI/GJ/2024/1213
44 19997 PBC DISTRIBUTORS Importers 23/02/2024 GOI/MH/2024/1212
45 19996 LANDSCAPE IRRIGATION CONSULTANT Importers 23/02/2024 GOI/UP/2024/1211
46 19995 RASIKA INTERNATIONAL RAIL PRIVATE LIMITED Importers 23/02/2024 GOI/DL/2024/1210
47 19994 SPACELY DIGITAL LLP Importers 23/02/2024 GOI/MH/2024/1209
48 19933 FLOW VOX Importers 23/02/2024 GOI/GJ/2024/1207
49 19993 GOLDEN INDIA ENTERPRISE Importers 23/02/2024 GOI/MH/2024/1208
50 19897 NEWVERSE FOODS PRIVATE LIMITED Manufacturer & Packers 23/02/2024 GOI/MH/2024/1206
51 19876 FEDERAL- MOGUL TPR (INDIA) LIMITED Importers 23/02/2024 GOI/DL/2024/1205
52 19822 SKECHERS SOUTH ASIA PRIVATE LIMITED Packers 23/02/2024 GOI/MH/2024/1204
53 20035 ALTOS COMPUTING (INDIA) PRIVATE LIMITED Importers 22/02/2024 GOI/KA/2024/1225
54 20024 SAGE APOTHECARY PRIVATE LIMITED Manufacturer & Packers 22/02/2024 GOI/HR/2024/1224
55 19992 ZOAPI INNOVATIONS PRIVATE LIMITED Importers 22/02/2024 GOI/KA/2024/1203
56 19991 SSUNSSHINNE EXIM CORPORATION Importers 22/02/2024 GOI/MH/2024/1202
57 19990 MILTON PAPERS PRODUCTS Manufacturer & Packers 22/02/2024 GOI/DL/2024/1182
58 19988 HAFELE INDIA PRIVATE LIMITED Importers 22/02/2024 GOI/MH/2024/1177
59 19987 HAFELE INDIA PRIVATE LIMITED Manufacturer & Packers 22/02/2024 GOI/MH/2024/1176
60 19986 JSG GROUP Manufacturer & Packers 22/02/2024 GOI/DL/2024/1201
61 19985 SADANSH PRIVATE LIMITED Importers 22/02/2024 GOI/GJ/2024/1200
62 19984 PROCASTER WHEELS PRIVATE LIMITED Importers 22/02/2024 GOI/MH/2024/1199
63 19983 CRYSTAL DIGITAL INKJET SOLUTION Importers 22/02/2024 GOI/GJ/2024/1198
64 19982 DOLCI INDIA Manufacturer & Packers 22/02/2024 GOI/DL/2024/1197
65 19981 PRISTLE PRODUCTS PRIVATE LIMITED Manufacturer & Packers 22/02/2024 GOI/HR/2024/1196
66 19980 TTK HEALTHCARE LIMITED Manufacturer & Packers 22/02/2024 GOI/TN/2024/1195
67 19979 STELATOES SHOES AND ACCESSORIES PRIVATE LIMITED Packers 22/02/2024 GOI/DL/2024/1194
68 19978 BATTER CHATTER PRIVATE LIMITED Manufacturer & Packers 22/02/2024 GOI/UP/2024/1193
69 19977 Pernod Ricard India Pvt. Ltd. Importers 22/02/2024 GOI/DL/2024/1192
70 19976 SHOES AND SHIRTS Importers 22/02/2024 GOI/HR/2024/1191
71 19975 ADDG CORPORATION Importers 22/02/2024 GOI/GJ/2024/1181
72 19974 VISIONARY FITNESS PRIVATE LIMITED Importers 22/02/2024 GOI/TN/2024/1190
73 19973 BS INTERNATIONAL Importers 22/02/2024 GOI/WB/2024/1189
74 19972 JUSTIME ST INDIA PRIVATE LIMITED Importers 22/02/2024 GOI/DL/2024/1188
75 19970 PARUL TOYS INDIA PRIVATE LIMITED Manufacturer & Packers 22/02/2024 GOI/TN/2024/1187
76 19969 SHRI BALAJI MAWA MERCHANT AND COMMISSION AGENT Packers 22/02/2024 GOI/DL/2024/1186
77 19967 Action International Private Limited Manufacturer & Packers 22/02/2024 GOI/DL/2024/1185
78 19966 CHHAPERIA ELECTRO COMPONENTS PRIVATE LIMITED Importers 22/02/2024 GOI/KA/2024/1184
79 19965 MINICO VITTLES LLP Importers 22/02/2024 GOI/MH/2024/1183
80 19964 RAY SOLUTIONS Importers 22/02/2024 GOI/TN/2024/1154
81 19963 KRISHNA ENZYTECH PRIVATE LIMITED Importers 22/02/2024 GOI/MH/2024/1155
82 19962 KENT R O SYSTEMS LIMITED. Manufacturer & Packers 22/02/2024 GOI/UP/2024/1156
83 19961 SSA-INDIA Importers 22/02/2024 GOI/KA/2024/1157
84 19959 RAMA SCOOTER HOUSE Importers 22/02/2024 GOI/DL/2024/1158
85 19958 MILAGRO UNIVERSE PRIVATE LIMITED Importers 22/02/2024 GOI/MH/2024/1159
86 19956 DK LAB SOLUTIONS Importers 22/02/2024 GOI/DL/2024/1160
87 19955 LABORATORY INSTRUMENTS & CHEMICALS Importers 22/02/2024 GOI/HR/2024/1161
88 19954 GALAXY PVC PANEL Importers 22/02/2024 GOI/MH/2024/1162
89 19953 BR GREEN INDUSTRIES PRIVATE LIMITED Manufacturer & Packers 22/02/2024 GOI/DL/2024/1180
90 19951 GARG TRADERS Importers 22/02/2024 GOI/DL/2024/1163
91 19950 R.S.TRIVENI FOODS PRIVATE LIMITED Manufacturer & Packers 22/02/2024 GOI/DL/2024/1164
92 19949 OM FINMART SERVICES PRIVATE LIMITED Importers 22/02/2024 GOI/MH/2024/1165
93 19948 MANASVI ENTERPRISES Importers 22/02/2024 GOI/MH/2024/1166
94 19947 HOAC FOODS INDIA LIMITED Manufacturer & Packers 22/02/2024 GOI/HR/2024/1167
95 19945 AVON BUILDING PRODUCTS PRIVATE LIMITED Manufacturer & Packers 22/02/2024 GOI/GJ/2024/1169
96 19944 BAWA INDUSTRIES Manufacturer & Packers 22/02/2024 GOI/DL/2024/1170
97 19943 MAHENDRA MACHINE TOOLS Importers 22/02/2024 GOI/MH/2024/1171
98 19941 NEW BALAJI GLASS INDUSTRIES Importers 22/02/2024 GOI/UP/2024/1172
99 19940 PRIMCO INDUSTRIES Manufacturer & Packers 22/02/2024 GOI/UP/2024/1173
100 19624 READY ROTI INDIA PVT LTD. Manufacturer & Packers 22/02/2024 GOI/RJ/2024/1175
101 18592 IRDETO TECHNOLOGY INDIA PRIVATE LIMITED Importers 22/02/2024 GOI/DL/2024/1179
102 17555 JASK INDIA ESSENTIALS PRIVATE LIMITED Importers 22/02/2024 GOI/AP/2024/1174
103 16693 CREATIVE OVERSEAS Importers 22/02/2024 GOI/HR/2024/1178
104 19946 ELITE EYEWEAR Importers 22/02/2024 GOI/GJ/2024/1168
105 19939 BUILD CORE CHEMICALS Manufacturer & Packers 20/02/2024 GOI/GJ/2024/1153
106 19938 INDIAN OVERSEAS Importers 20/02/2024 GOI/MH/2024/1152
107 19937 UNITED TRADELINKS Importers 20/02/2024 GOI/MH/2024/1151
108 19936 GLOBAL FIRE EQUIPMENT Importers 20/02/2024 GOI/MH/2024/1150
109 19935 MANIK TRADERS Importers 20/02/2024 GOI/MH/2024/1149
110 19934 B N TELESRA & CO Importers 20/02/2024 GOI/TN/2024/1148
111 19932 VRINDA PETRO CHEM Importers 20/02/2024 GOI/HR/2024/1147
112 19931 MA IMPEX Importers 20/02/2024 GOI/TN/2024/1146
113 19930 JAS POLYCHEM PRIVATE LIMITED Importers 20/02/2024 GOI/UP/2024/1145
114 19929 GAUTAM IMPEX Importers 20/02/2024 GOI/GJ/2024/1144
115 19928 BROHKS HEALTHCARE PRIVATE LIMITED Importers 20/02/2024 GOI/GJ/2024/1143
116 19927 KARORI ENERGY TECHNOLOGY Importers 20/02/2024 GOI/GJ/2024/1142
117 19926 CRESTSOL INSTRUMENTATION AND AUTOMATION PRIVATE LIMITED Importers 20/02/2024 GOI/MH/2024/1141
118 19925 JOMIN ANIMAL HEALTH Importers 20/02/2024 GOI/TN/2024/1140
119 19924 VERMA MECHANICAL WORKS Importers 20/02/2024 GOI/DL/2024/1139
120 19923 SPEEDO CLEANING EQUIPMENTS LLP Importers 20/02/2024 GOI/MH/2024/1138
121 19922 DAMODAR EXPORT Importers 20/02/2024 GOI/MH/2024/1137
122 19921 MICRO PROCESS CONTROLS Importers 20/02/2024 GOI/GJ/2024/1129
123 19920 ASLAN TRADING COMPANY PRIVATE LIMITED Importers 20/02/2024 GOI/MH/2024/1128
124 19919 INTERGRIT Importers 20/02/2024 GOI/MH/2024/1136
125 19918 MACHSHIELD Importers 20/02/2024 GOI/MH/2024/1127
126 19917 KIYA OVERSEAS Importers 20/02/2024 GOI/DL/2024/1126
127 19908 FIRSTCHOICE READY MIX PRIVATE LIMITED Manufacturer & Packers 20/02/2024 GOI/TS/2024/1135
128 19903 LYNE VENTURES PRIVATE LIMITED Importers 20/02/2024 GOI/GJ/2024/1134
129 19900 VKC NUTS AND SPICES PRIVATE LIMITED Packers 20/02/2024 GOI/GJ/2024/1125
130 19882 KAMAL ELEKTRONIX Importers 20/02/2024 GOI/KA/2024/1133
131 19784 IMAGINE MARKETING LIMITED Importers 20/02/2024 GOI/MH/2024/1132
132 19783 IMAGINE MARKETING LIMITED Manufacturer & Packers 20/02/2024 GOI/MH/2024/1131
133 19730 DR SHOPCART PRIVATE LIMITED Importers 20/02/2024 GOI/DL/2024/1124
134 19447 SRF Limited Manufacturer & Packers 20/02/2024 GOI/DL/2024/1130
135 19916 DTOOL CONNEXION Importers 16/02/2024 GOI/DL/2024/1123
136 19915 POPLI INTERNATIONAL Importers 16/02/2024 GOI/DL/2024/1122
137 19914 GLOBAL IMPEX Importers 16/02/2024 GOI/GJ/2024/1121
138 19913 D SEP CENTRIFUGE SERVICES Importers 16/02/2024 GOI/KA/2024/1120
139 19912 AG BEARINGS Importers 16/02/2024 GOI/DL/2024/1119
140 19911 NAGINA ENTERPRISES Importers 16/02/2024 GOI/DL/2024/1118
141 19910 NAPPA DORI PRIVATE LIMITED Manufacturer & Packers 16/02/2024 GOI/DL/2024/1117
142 19907 AAYIRP (OPC) PRIVATE LIMITED Importers 16/02/2024 GOI/KA/2024/1116
143 19906 NEW ZEEL FASHION WEAR PRIVATE LIMITED Manufacturer & Packers 16/02/2024 GOI/MP/2024/1115
144 19905 JASMINE ENTERPRISES Importers 16/02/2024 GOI/TN/2024/1114
145 19904 ECO MILES Importers 16/02/2024 GOI/MH/2024/1113
146 19902 THINK SEVEN TECHNOLOGY Importers 16/02/2024 GOI/TN/2024/1112
147 19901 HANDORF INDIA PRIVATE LIMITED Importers 16/02/2024 GOI/DL/2024/1111
148 19899 KENT R O SYSTEMS LIMITED. Importers 16/02/2024 GOI/UP/2024/1110
149 19898 SAMLESHWARI IMPEX Importers 16/02/2024 GOI/DL/2024/1109
150 19896 GAIINDIA HOSPITALITY SOLUTIONS PRIVATE LIMITED Importers 16/02/2024 GOI/MH/2024/1108
151 19895 GLISPRO INDIA PRIVATE LIMITED Importers 16/02/2024 GOI/KA/2024/1107
152 19894 ESME CONSUMER PRIVATE LIMITED Manufacturer & Packers 16/02/2024 GOI/HR/2024/1106
153 19893 B.M. INDUSTRIES Manufacturer & Packers 16/02/2024 GOI/MH/2024/1105
154 19892 THE CITY MOTOR COMPANY Importers 16/02/2024 GOI/MH/2024/1104
155 19891 SHREE SAI COMPONENTS Importers 16/02/2024 GOI/MH/2024/1103
156 19890 MUSTEK TECHNOLOGIES PRIVATE LIMITED Importers 16/02/2024 GOI/KA/2024/1102
157 19889 JAY OVERSEAS Importers 16/02/2024 GOI/MH/2024/1101
158 19888 J C LUBRICANTS PRIVATE LIMITED Packers 16/02/2024 GOI/MH/2024/1100
159 19887 MYK ARMENT INDIA PRIVATE LIMITED Manufacturer & Packers 16/02/2024 GOI/TS/2024/1099
160 19886 SUNLUMIN TECHNOLOGY PRIVATE LIMITED Importers 16/02/2024 GOI/DL/2024/1098
161 19880 VIBRANCE FOODS PRIVATE LIMITED Importers 16/02/2024 GOI/DL/2024/1097
162 19877 ACMO WATER TECHNOLOGY INDIA PRIVATE LIMITED Importers 16/02/2024 GOI/MP/2024/1096
163 19875 OLAM AGRI INDIA PRIVATE LIMITED Manufacturer & Packers 16/02/2024 GOI/HR/2024/1095
164 19871 VENUS INDUSTRIES Importers 16/02/2024 GOI/DL/2024/1094
165 19866 OLAM AGRI INDIA PRIVATE LIMITED Importers 16/02/2024 GOI/HR/2024/1093
166 19859 Grasim Industries Limited Importers 16/02/2024 GOI/MP/2024/1092
167 19856 Tata Starbucks Private Limited, Importers 16/02/2024 GOI/MH/2024/1091
168 19825 AARA CREATIONS Importers 16/02/2024 GOI/HR/2024/1090
169 19352 HONESTLY ITALIAN PRIVATE LIMITED Manufacturer & Packers 16/02/2024 GOI/DL/2024/1069
170 18561 Beejapuri Fresh Products Private Limited Manufacturer & Packers 16/02/2024 GOI/HR/2024/1089
171 19885 SIVINA MARKETING Importers 16/02/2024 GOI/MH/2024/1088
172 19884 NILKANTH STONE AND MATERIALS Importers 16/02/2024 GOI/GJ/2024/1087
173 19883 VISHESH INFRASTRUCTURE SERVICES Importers 16/02/2024 GOI/MP/2024/1086
174 19881 GANPATI CREATIONS Importers 16/02/2024 GOI/HR/2024/1085
175 19879 LABYANTRA SOLUTIONS PRIVATE LIMITED Packers 16/02/2024 GOI/UP/2024/1084
176 19874 GPA CAPITAL FOODS PRIVATE LIMITED Manufacturer & Packers 16/02/2024 GOI/DL/2024/1083
177 19873 TOOL MEC Importers 16/02/2024 GOI/KA/2024/1082
178 19872 SHINI INNOVATIONS PRIVATE LIMITED Manufacturer & Packers 16/02/2024 GOI/TN/2024/1081
179 19870 ARAVALI MARUDHARA SPICES AND GROCERIES L LP Manufacturer & Packers 16/02/2024 GOI/RJ/2024/1080
180 19869 SUPREME ELECTRIC EQUIPMENTS Importers 16/02/2024 GOI/PB/2024/1079
181 19868 BOMBAY ELECTRICAL PROJECTS AND SUPPLIES (INDIA) PRIVATE LIMITED Importers 16/02/2024 GOI/MH/2024/1078
182 19867 FLICKA COSMETICS PRIVATE LIMITED Importers 16/02/2024 GOI/MH/2024/1077
183 19865 KASLIWAL BUSINESS SOLUTIONS PRIVATE LIMITED Importers 16/02/2024 GOI/MH/2024/1076
184 19864 DRAWING BOARD Importers 16/02/2024 GOI/KA/2024/1075
185 19863 I AND S COMMUNIQUE PRIVATE LIMITED Importers 16/02/2024 GOI/DL/2024/1074
186 19862 STARGOOD INNOVATION Importers 16/02/2024 GOI/MH/2024/1073
187 19858 Grasim Industries Limited Manufacturer & Packers 16/02/2024 GOI/MP/2024/1072
188 19857 AVON BUILDING PRODUCTS PRIVATE LIMITED Manufacturer & Packers 16/02/2024 GOI/CG/2024/1071
189 19823 DIGITAL SERVICES INDIA Importers 16/02/2024 GOI/GJ/2024/1070
190 19861 PETROLIA GLOBAL PRIVATE LIMITED Packers 15/02/2024 GOI/OR/2024/1059
191 19860 KONKEM INDUSTRIES PRIVATE LIMITED Manufacturer & Packers 15/02/2024 GOI/GJ/2024/1058
192 19855 FERROCARE MACHINES PRIVATE LIMITED Importers 15/02/2024 GOI/MH/2024/1057
193 19854 HAREESHVA AGENCIES Importers 15/02/2024 GOI/TN/2024/1056
194 19853 MAMRAJ MUSIC SYSTEM Importers 15/02/2024 GOI/RJ/2024/1055
195 19852 PACIFIC ICONICS Importers 15/02/2024 GOI/RJ/2024/1054
196 19851 MAHROZ COMMERCE SOLUTIONS Importers 15/02/2024 GOI/WB/2024/1053
197 19850 BHASIN OVERSEAS Importers 15/02/2024 GOI/DL/2024/1052
198 19849 MOBUS CLIMATE CONTROL SYSTEMS INDIA PRIVATE LIMITED Importers 15/02/2024 GOI/KA/2024/1051
199 19848 KORES (INDIA) LIMITED Importers 15/02/2024 GOI/MH/2024/1050
200 19847 ENERZISE POWER SOLUTIONS Importers 15/02/2024 GOI/KA/2024/1049
201 19846 PARADISE INTERNATIONAL TRADING Importers 15/02/2024 GOI/MP/2024/1048
202 19845 SHREE SAGAR GLOBAL CORPORATION Importers 15/02/2024 GOI/MH/2024/1047
203 19844 HOOLI BRANDS MULTI TRADING PRIVATE LIMITED Manufacturer & Packers 15/02/2024 GOI/MH/2024/1046
204 19843 GEMINI INTERNATIONAL Importers 15/02/2024 GOI/MH/2024/1045
205 19842 SHRI PARSHVANATH ENTERPRISE Importers 15/02/2024 GOI/GJ/2024/1044
206 19841 ROYAL TRADING COMPANY Importers 15/02/2024 GOI/PB/2024/1043
207 19840 KOMAL INTERNATIONAL Importers 15/02/2024 GOI/DL/2024/1042
208 19838 MAHA LAXMI MOBILE Importers 15/02/2024 GOI/CG/2024/1041
209 19837 ACCURATE SOLUTIONS Importers 15/02/2024 GOI/RJ/2024/1040
210 19835 TTC INTRADE Importers 15/02/2024 GOI/TN/2024/1039
211 19821 Knauf Ceiling solutions (India ) Pvt ltd Importers 15/02/2024 GOI/MH/2024/1060
212 19808 F1 INFO SOLUTIONS AND SERVICES PRIVATE LIMITED Manufacturer & Packers 15/02/2024 GOI/KA/2024/1061
213 19803 KRISORIGINALS PRIVATE LIMITED Importers 15/02/2024 GOI/HR/2024/1062
214 19749 FINESSE INTERNATIONAL DESIGN PRIVATE LIMITED Importers 15/02/2024 GOI/DL/2024/1063
215 19748 ONE97 COMMUNICATIONS LIMITED Manufacturer & Packers 15/02/2024 GOI/DL/2024/1064
216 19743 Jaypore E-Commerce Private Limited Importers 15/02/2024 GOI/HR/2024/1065
217 19741 Jaypore E-Commerce Private Limited Manufacturer & Packers 15/02/2024 GOI/HR/2024/1066
218 19738 INDIVINITY CLOTHING RETAIL PRIVATE LIMITED Manufacturer & Packers 15/02/2024 GOI/HR/2024/1067
219 19561 NESTLE INDIA LTD. Manufacturer & Packers 15/02/2024 GOI/DL/2024/1037
220 19737 INDIVINITY CLOTHING RETAIL PRIVATE LIMITED Importers 15/02/2024 GOI/HR/2024/1068
221 19650 SMRUTI EXIM PRIVATE LIMITED Manufacturer & Packers 15/02/2024 GOI/GJ/2024/1038
222 19252 WIZBRO VENTURES PRIVATE LIMITED Importers 15/02/2024 GOI/DL/2024/1036
223 18957 PERNOD RICARD INDIA Pvt. Ltd. Manufacturer & Packers 15/02/2024 GOI/DL/2024/1035
224 19834 TAG MOULDING LLP Importers 14/02/2024 GOI/GJ/2024/1034
225 19833 FLOWSERVE INDIA CONTROLS PRIVATE LIMITED Importers 14/02/2024 GOI/GJ/2024/1033
226 19832 LANGRO INDIA PRIVATE LIMITED Importers 14/02/2024 GOI/TN/2024/1032
227 19831 LUMINA DISPLAY SYSTEMS PRIVATE LIMITED Importers 14/02/2024 GOI/MH/2024/1031
228 19830 TRUE COLORS SOLUTIONS & TECHNOLOGIES INDIA PRIVATE LIMITED Importers 14/02/2024 GOI/DL/2024/1030
229 19829 WANG PROFESSIONALS PRIVATE LIMITED Importers 14/02/2024 GOI/DL/2024/1029
230 19828 MAHALAXMI CERAMICS Importers 14/02/2024 GOI/GJ/2024/1028
231 19827 DIGIPROTEK CONSULTING AND SERVICES PRIVATE LIMITED Importers 14/02/2024 GOI/KA/2024/1027
232 19826 SCIENTIFIC RESEARCH INSTRUMENTS COMPANY PRIVATE LIMITED Importers 14/02/2024 GOI/KA/2024/1026
233 19824 RAIMCO AUTOMOTIVE Importers 14/02/2024 GOI/DL/2024/1025
234 19820 SANAKO EDUCATION INDIA PRIVATE LIMITED Importers 14/02/2024 GOI/DL/2024/1024
235 19796 STARSHOT TOOLS PRIVATE LIMITED Importers 14/02/2024 GOI/HR/2024/1023
236 19774 AVENT AGRO PRIVATE LIMITED Manufacturer & Packers 14/02/2024 GOI/DL/2024/1022
237 19751 FINESSE INTERNATIONAL DESIGN PRIVATE LIMITED Manufacturer & Packers 14/02/2024 GOI/DL/2024/1021
238 19745 ONE97 COMMUNICATIONS LIMITED Importers 14/02/2024 GOI/DL/2024/1020
239 19627 Jai Shree International Importers 14/02/2024 GOI/HR/2024/1019
240 19818 CONCRETE VENTURES (OPC) PRIVATE LIMITED Importers 13/02/2024 GOI/KA/2024/1005
241 19817 TMA INTERCONTINENTAL LLP Importers 13/02/2024 GOI/DL/2024/1006
242 19816 DHRUV ENTERPRISES Importers 13/02/2024 GOI/TN/2024/1007
243 19815 YASH RAJ CHATONS Importers 13/02/2024 GOI/MH/2024/1008
244 19814 DAMODAR EXPORT Importers 13/02/2024 GOI/MH/2024/1009
245 19813 MUFASA SALES CORPORATION Importers 13/02/2024 GOI/MH/2024/1010
246 19812 SIDDHI VINAYAK TRADING CO Manufacturer & Packers 13/02/2024 GOI/GJ/2024/1011
247 19811 SANKET ENTERPRISES Importers 13/02/2024 GOI/MH/2024/1012
248 19810 CONTINAS INDUSTRIES Importers 13/02/2024 GOI/GJ/2024/1013
249 19809 KG INFOSYSTEM PRIVATE LIMITED Importers 13/02/2024 GOI/DL/2024/1014
250 19807 T M R PROJECTS PRIVATE LIMITED Importers 13/02/2024 GOI/DL/2024/1015
251 19806 AGROGATOR EXPORTS PRIVATE LIMITED Importers 13/02/2024 GOI/MH/2024/1016
252 19494 MEDISCOPE Importers 13/02/2024 GOI/PB/2024/1018
253 19471 GROZ ENGINEERING TOOLS PRIVATE LIMITED Importers 13/02/2024 GOI/HR/2024/1017
254 19805 SHREEAADYA MERCHANDISE PRIVATE LIMITED Importers 12/02/2024 GOI/DL/2024/1004
255 19804 ENCODE ELECTRONICS Importers 12/02/2024 GOI/DL/2024/1003
256 19802 ADORA EXPORTS Importers 12/02/2024 GOI/MH/2024/1002
257 19801 LA CASERO DECORS Importers 12/02/2024 GOI/GJ/2024/1001
258 19800 SAM INN RESORTS PVT LTD Importers 12/02/2024 GOI/RJ/2024/1000
259 19799 FAIRTECH ENGINEERS Importers 12/02/2024 GOI/MH/2024/958
260 19798 VAULT FINE SPIRITS PRIVATE LIMITED Importers 12/02/2024 GOI/MH/2024/999
261 19797 RENESOLA SOLUTIONS PRIVATE LIMITED Importers 12/02/2024 GOI/GJ/2024/998
262 19795 CANDOR DATES PRIVATE LIMITED Importers 12/02/2024 GOI/MH/2024/997
263 19794 STAPES & BAUBLE PRIVATE LIMITED Importers 12/02/2024 GOI/HR/2024/996
264 19793 SHYAM SALES CORPORATION Importers 12/02/2024 GOI/WB/2024/995
265 19792 INFINIARC INNOVATIONS INDIA PRIVATE LIMITED Importers 12/02/2024 GOI/UP/2024/994
266 19791 MODERN DAIRY MACHINES Importers 12/02/2024 GOI/TN/2024/993
267 19790 JAKSHN MARKETING GROUP PRIVATE LIMITED Importers 12/02/2024 GOI/DL/2024/992
268 19789 JAPS ENTERPRISES Importers 12/02/2024 GOI/HR/2024/991
269 19788 KENT R O SYSTEMS LIMITED. Importers 12/02/2024 GOI/UP/2024/990
270 19787 THE AUTO CONNECT Importers 12/02/2024 GOI/TN/2024/989
271 19786 CENTUM CONTROLS PRIVATE LIMITED Importers 12/02/2024 GOI/TN/2024/988
272 19782 HALLO FOODS PRIVATE LIMITED Importers 12/02/2024 GOI/MH/2024/987
273 19781 GALAXY ENTERPRISES Importers 12/02/2024 GOI/MH/2024/986
274 19779 COCKATOO SPORTS PRIVATE LIMITED Importers 12/02/2024 GOI/PB/2024/985
275 19778 RMES INDIA PRIVATE LIMITED Importers 12/02/2024 GOI/TS/2024/984
276 19777 ENVIRO SAFETY PRIVATE LIMITED Importers 12/02/2024 GOI/MH/2024/983
277 19776 MAH TRADING COMPANY Importers 12/02/2024 GOI/MH/2024/982
278 19775 SAIFY LOCK MART Importers 12/02/2024 GOI/MH/2024/981
279 19773 ZANEETA INTERNATIONAL Importers 12/02/2024 GOI/MH/2024/980
280 19772 GANPATI TRADERS Importers 12/02/2024 GOI/HR/2024/979
281 19771 NEXVING INFOTECH Importers 12/02/2024 GOI/UP/2024/978
282 19770 ADORE MEDICAL PRIVATE LIMITED Importers 12/02/2024 GOI/RJ/2024/977
283 19769 CGLAM LIFESTYLE PRIVATE LIMITED Importers 12/02/2024 GOI/MH/2024/976
284 19768 SLEEK INTERNATIONAL PRIVATE LIMITED Importers 12/02/2024 GOI/MH/2024/975
285 19767 4D SURVEY INSTRUMENTS AND CONSULTANTS Importers 12/02/2024 GOI/TN/2024/974
286 19766 RIOTECH INDUSTRIES Manufacturer & Packers 12/02/2024 GOI/KL/2024/973
287 19765 ELCOM INNOVATIONS PRIVATE LIMITED Importers 12/02/2024 GOI/PB/2024/972
288 19764 VIRAJ PRINTS Importers 12/02/2024 GOI/MH/2024/971
289 19763 SNITCH APPARELS PRIVATE LIMITED Manufacturer & Packers 12/02/2024 GOI/KA/2024/957
290 19762 SNITCH APPARELS PRIVATE LIMITED Packers 12/02/2024 GOI/KA/2024/970
291 19761 SNITCH APPARELS PRIVATE LIMITED Importers 12/02/2024 GOI/KA/2024/956
292 19760 M2Y SOURCING SOLUTION Importers 12/02/2024 GOI/DL/2024/969
293 19759 ACE DETAILING Importers 12/02/2024 GOI/RJ/2024/968
294 19757 AQUAGREEN SOLUTIONS LLP Importers 12/02/2024 GOI/MH/2024/967
295 19756 MILLENNIUM METAL EXCHANGE Importers 12/02/2024 GOI/HR/2024/966
296 19755 SANMO INTERNATIONAL Importers 12/02/2024 GOI/DL/2024/965
297 19754 VERITAZ TRADING & EXIM PRIVATE LIMITED Importers 12/02/2024 GOI/DL/2024/964
298 19753 LAYMAN STORES Importers 12/02/2024 GOI/UP/2024/963
299 19752 LIFEBOAT INTERNATIONAL Importers 12/02/2024 GOI/MP/2024/962
300 19742 ULTIMATE AUTO IMPEX INC Importers 12/02/2024 GOI/MH/2024/961
301 19723 TEAMWIN GLOBAL TECHNOLOGICA PRIVATE LIMITED Importers 12/02/2024 GOI/KA/2024/960
302 19702 WATCHDOG SECURITY Importers 12/02/2024 GOI/DL/2024/959
303 19686 FARM AGRO TECH MACHINERY Importers 12/02/2024 GOI/KA/2024/955
304 19750 SHREE RADHA RAMAN IMPEX Importers 09/02/2024 GOI/DL/2024/954
305 19747 CACTOPIA Importers 09/02/2024 GOI/MH/2024/953
306 19746 SIMLA MOTORS Importers 09/02/2024 GOI/MH/2024/952
307 19744 NANDAN THERAPEUTICS PRIVATE LIMITED Importers 09/02/2024 GOI/TS/2024/951
308 19740 SHUBHA ENTERPRISES Importers 09/02/2024 GOI/UP/2024/950
309 19739 AIM SOLDER (INDIA) PRIVATE LIMITED Importers 09/02/2024 GOI/KA/2024/949
310 19736 STATIONERY PLANET Importers 09/02/2024 GOI/DL/2024/948
311 19735 ABYFS7119P Importers 09/02/2024 GOI/GJ/2024/947
312 19734 VERSUNI INDIA HOME SOLUTIONS LIMITED Manufacturer & Packers 09/02/2024 GOI/WB/2024/946
313 19733 SYNERGY TRADING COMPANY Importers 09/02/2024 GOI/DL/2024/945
314 19732 FRIULAIR INDIA PRIVATE LIMITED Importers 09/02/2024 GOI/DL/2024/944
315 19731 GLOBAL MARKETING EMPIRE Importers 09/02/2024 GOI/HR/2024/943
316 19729 SMC AQUA SOLUTIONS PRIVATE LIMITED Manufacturer & Packers 09/02/2024 GOI/PB/2024/942
317 19727 LEONIS ELECTRONICS PRIVATE LIMITED Importers 09/02/2024 GOI/DL/2024/941
318 19726 EVIND TECHNOLOGIES Importers 09/02/2024 GOI/MH/2024/940
319 19725 SWAMI AGENCIES Importers 09/02/2024 GOI/MH/2024/935
320 19724 SRK POWERTECH PRIVATE LIMITED Importers 09/02/2024 GOI/HR/2024/934
321 19722 SPS LAPTOP PARTS INDIA PRIVATE LIMITED Importers 09/02/2024 GOI/DL/2024/932
322 19721 LIYA IMPORT EXPORTERS Importers 09/02/2024 GOI/KA/2024/931
323 19720 COMINIX INDIA PRIVATE LIMITED Importers 09/02/2024 GOI/KA/2024/930
324 19719 VIVID VISION INTERNATIONAL Importers 09/02/2024 GOI/DL/2024/929
325 19718 ETCS TRANSMILLE INDIA PRIVATE LIMITED Importers 09/02/2024 GOI/TN/2024/928
326 19717 MICOBIO INDIA PRIVATE LIMITED Importers 09/02/2024 GOI/HR/2024/900
327 19716 EZO TECHNOLOGIES PRIVATE LIMITED Importers 09/02/2024 GOI/MH/2024/933
328 19715 HEYER MEDICAL INDIA PRIVATE LIMITED Importers 09/02/2024 GOI/KA/2024/901
329 19714 SAROJ ENTERPRISE Importers 09/02/2024 GOI/MH/2024/903
330 19713 KVG AGRO PRIVATE LIMITED Manufacturer & Packers 09/02/2024 GOI/HR/2024/904
331 19712 ROBOSON INDIA Importers 09/02/2024 GOI/MH/2024/939
332 19710 FIRST CHOICE VET FOODS Importers 09/02/2024 GOI/KL/2024/906
333 19709 TOPNTOE E-COMMERCE INDIA PRIVATE LIMITED Importers 09/02/2024 GOI/MH/2024/908
334 19707 SUZEN MEDICARE PRIVATE LIMITED Importers 09/02/2024 GOI/TS/2024/913
335 19706 K.B.IMPEX Importers 09/02/2024 GOI/MH/2024/938
336 19705 BEWAKOOF BRANDS PRIVATE LIMITED Manufacturer & Packers 09/02/2024 GOI/MH/2024/916
337 19704 BLACK EAGLE GLASSWARE IMPORTS Importers 09/02/2024 GOI/RJ/2024/918
338 19703 ROYAL CASHEW INDUSTRIES Manufacturer & Packers 09/02/2024 GOI/KA/2024/920
339 19701 BE NATURAL ORGANICS FOODS AND CEREALS Manufacturer & Packers 09/02/2024 GOI/MH/2024/927
340 19700 FIBTEK COMMUNICATIONS PRIVATE LIMITED Importers 09/02/2024 GOI/MH/2024/922
341 19699 AUTBERG PRIVATE LIMITED Importers 09/02/2024 GOI/HP/2024/921
342 19698 INDOGULF CROPSCIENCES LIMITED Importers 09/02/2024 GOI/HR/2024/919
343 19697 KONAH IMPEX Importers 09/02/2024 GOI/GJ/2024/917
344 19696 SHRI SHYAM Importers 09/02/2024 GOI/HR/2024/915
345 19695 EAN ENTERPRISES Packers 09/02/2024 GOI/HR/2024/914
346 19694 TIRUPATHI AGRO IND Importers 09/02/2024 GOI/MH/2024/912
347 19692 KALYAN TRADERS Packers 09/02/2024 GOI/GJ/2024/911
348 19691 CLI FOOTWEAR AND ACCESSORIES PRIVATE LIMITED Importers 09/02/2024 GOI/MH/2024/910
349 19690 CLI FOOTWEAR AND ACCESSORIES PRIVATE LIMITED Manufacturer & Packers 09/02/2024 GOI/MH/2024/909
350 19685 ARBUDA TRADERS Importers 09/02/2024 GOI/GJ/2024/926
351 19683 ABLE ELECTRONICS Importers 09/02/2024 GOI/KA/2024/925
352 19674 AKROSS COATINGS PRIVATE LIMITED Manufacturer & Packers 09/02/2024 GOI/UP/2024/907
353 19668 METTUBE COPPER INDIA PRIVATE LIMITED Importers 09/02/2024 GOI/GJ/2024/905
354 19665 MHH SERVICES PRIVATE LIMITED Importers 09/02/2024 GOI/UP/2024/902
355 19661 JAFERSON TEA COMPANY Manufacturer & Packers 09/02/2024 GOI/DL/2024/899
356 19651 PRABHAT ZARDA FACTORY INTERNATIONAL LTD Manufacturer & Packers 09/02/2024 GOI/UP/2024/937
357 19645 THEOBROMA FOODS PRIVATE LIMITED Manufacturer & Packers 09/02/2024 GOI/MH/2024/898
358 19630 LONIKA VENTURES Importers 09/02/2024 GOI/KA/2024/897
359 19629 R G INDUSTRIES Manufacturer & Packers 09/02/2024 GOI/HR/2024/936
360 19623 MOGLI LABS (INDIA) PRIVATE LIMITED Importers 09/02/2024 GOI/DL/2024/924
361 19595 SAMSUNG INDIA ELECTRONICS INDIA PVT. LTD. Importers 09/02/2024 GOI/DL/2024/895
362 19590 9 HINDWAY HITECH PRIVATE LIMITED Importers 09/02/2024 GOI/DL/2024/923
363 19417 TRAMONTINA INDIA PRIVATE LIMITED Importers 09/02/2024 GOI/MH/2024/896
364 19693 ALLIANCE FLAVOURS Importers 08/02/2024 GOI/RJ/2024/894
365 19689 URMILA SILKS PRIVATE LIMITED Importers 08/02/2024 GOI/KA/2024/893
366 19688 SALASAR SILK TRADING COMPANY Importers 08/02/2024 GOI/KA/2024/892
367 19687 MAT OVERSEAS Importers 08/02/2024 GOI/GJ/2024/891
368 19684 OKINAWA SCOOTERS & MOTORCYCLES INDIA PRIVATE LIMITED Manufacturer & Packers 08/02/2024 GOI/HR/2024/890
369 19682 SLPL SKYLIGHT LIGHTING PRIVATE LIMITED Importers 08/02/2024 GOI/GJ/2024/889
370 19681 E-ASHWA AUTOMOTIVE PRIVATE LIMITED Importers 08/02/2024 GOI/UP/2024/888
371 19680 GLOBE STEELS PRIVATE LIMITED Manufacturer & Packers 08/02/2024 GOI/TN/2024/887
372 19679 BIG BROTHER DESIGNER PRIVATE LIMITED Manufacturer & Packers 08/02/2024 GOI/DL/2024/886
373 19678 BENCHMARK TECHNOLOGIES Importers 08/02/2024 GOI/DL/2024/885
374 19677 BOMBAY STRAPS AGENCY Importers 08/02/2024 GOI/MH/2024/884
375 19675 ICOTEK INDIA PRIVATE LIMITED Importers 08/02/2024 GOI/KA/2024/863
376 19673 ELECTRICAL CONTACTS CORPORATION Importers 08/02/2024 GOI/KA/2024/883
377 19670 SREERAM IRON WORKS PVT LTD Importers 08/02/2024 GOI/WB/2024/882
378 19669 K P MEDIATECH Importers 08/02/2024 GOI/DL/2024/881
379 19667 S G R ENTERPRISES Importers 08/02/2024 GOI/KA/2024/880
380 19666 SHRI KRISHNA TRADING COMPANY Importers 08/02/2024 GOI/UP/2024/879
381 19664 FLAMINGO TECH SOLUTIONS LLP Importers 08/02/2024 GOI/DL/2024/878
382 19663 ANECHA ASSOCIATES Importers 08/02/2024 GOI/MH/2024/877
383 19662 OZ OVERSEAS Importers 08/02/2024 GOI/RJ/2024/876
384 19660 REALIKE INTERNATIONAL Importers 08/02/2024 GOI/DL/2024/875
385 19659 BCS INDIA PRIVATE LIMITED. Importers 08/02/2024 GOI/PB/2024/874
386 19658 SWIFTIN SOLUTIONS LLP Importers 08/02/2024 GOI/MH/2024/873
387 19657 KGN-INTL Importers 08/02/2024 GOI/MH/2024/872
388 19656 MASTRO MEDIC INDIA PRIVATE LIMITED Importers 08/02/2024 GOI/TN/2024/871
389 19655 ACE FASTENING SOLUTIONS PRIVATE LIMITED Importers 08/02/2024 GOI/TN/2024/870
390 19654 BLISS ELECTRICALS PRIVATE LIMITED Importers 08/02/2024 GOI/MH/2024/869
391 19625 PRIETOR INDUSTRIES PRIVATE LIMITED Importers 08/02/2024 GOI/MH/2024/868
392 19611 CANIS AUTO INDIA Importers 08/02/2024 GOI/TN/2024/867
393 19603 HINDUSTAN FOODS LIMITED Manufacturer & Packers 08/02/2024 GOI/TS/2024/866
394 19364 BORANA SALES CORPORATION Importers 08/02/2024 GOI/GJ/2024/865
395 17239 Lenovo (India) Private Limited Importers 08/02/2024 GOI/KA/2024/864
396 19653 RECOMM BUSINESS SOLUTIONS INDIA PRIVATE LIMITED Importers 07/02/2024 GOI/HR/2024/859
397 19652 SKYWAY MARKETING PRIVATE LIMITED Packers 07/02/2024 GOI/DL/2024/858
398 19649 D.P ENTERPRISES Importers 07/02/2024 GOI/DL/2024/856
399 19648 Spacetelecommunication System Importers 07/02/2024 GOI/DL/2024/855
400 19647 WOAP Importers 07/02/2024 GOI/DL/2024/854
401 19646 INDIA AGENCIES (REGD) Importers 07/02/2024 GOI/KA/2024/853
402 19644 SUGI ELECTRONICS LLP Importers 07/02/2024 GOI/KA/2024/860
403 19643 ARADHYA NEWS PHOTOS Importers 07/02/2024 GOI/KA/2024/852
404 19642 JANUS GLOBAL TRADE PRIVATE LIMITED Manufacturer & Packers 07/02/2024 GOI/GJ/2024/851
405 19641 JANUS GLOBAL TRADE PRIVATE LIMITED Importers 07/02/2024 GOI/GJ/2024/850
406 19640 LUCY ELECTRIC INDIA PRIVATE LIMITED Importers 07/02/2024 GOI/MH/2024/857
407 19639 RAJESH SPORTS Importers 07/02/2024 GOI/GJ/2024/849
408 19638 ANAND AND ANAND Importers 07/02/2024 GOI/PB/2024/848
409 19637 INDRAPRASTHA ADVISORS PRIVATE LIMITED Importers 07/02/2024 GOI/DL/2024/847
410 19636 DW AUTOMATION Importers 07/02/2024 GOI/KA/2024/846
411 19635 M/S R.A ENTERPRISE Importers 07/02/2024 GOI/AS/2024/845
412 19634 LUCKY PLASTICS Importers 07/02/2024 GOI/MH/2024/844
413 19633 EMPIRE EXIM Importers 07/02/2024 GOI/KA/2024/843
414 19632 D'DECOR HOME STORE LLP Importers 07/02/2024 GOI/MH/2024/842
415 19631 OKINAWA SCOOTERS & MOTORCYCLES INDIA PRIVATE LIMITED Importers 07/02/2024 GOI/HR/2024/841
416 19628 IDLABELS AND SOLUTIONS PRIVATE LIMITED Importers 07/02/2024 GOI/DL/2024/840
417 19626 garware Technical Fibres Limited Importers 07/02/2024 GOI/MH/2024/839
418 19599 MACRO WALLS & FLOOR LLP Importers 07/02/2024 GOI/MH/2024/838
419 19584 ONE97 COMMUNICATIONS LIMITED Manufacturer & Packers 07/02/2024 GOI/DL/2024/862
420 19576 ONE97 COMMUNICATIONS LIMITED Importers 07/02/2024 GOI/DL/2024/861
421 19490 EXTREME ADVENTURE SPORTS Importers 07/02/2024 GOI/MH/2024/803
422 19443 F1 INFO SOLUTIONS AND SERVICES PRIVATE LIMITED Manufacturer & Packers 07/02/2024 GOI/KA/2024/837
423 19389 Reliance Retail Limited Packers 07/02/2024 GOI/MH/2024/783
424 17318 Lenovo Global Technology India Private Limited Importers 07/02/2024 GOI/KA/2024/836
425 19621 DICO PAINTS INDIA PRIVATE LIMITED Manufacturer & Packers 05/02/2024 GOI/UP/2024/832
426 19620 GREENICHE HERBAL PRODUCTS PRIVATE LIMITED Manufacturer & Packers 05/02/2024 GOI/UP/2024/831
427 19619 3P INSTRUMENT Importers 05/02/2024 GOI/MH/2024/830
428 19618 TASA INTERNATIONAL Importers 05/02/2024 GOI/GJ/2024/829
429 19617 HUBBBA HUBBBA FOODS PRIVATE LIMITED Importers 05/02/2024 GOI/DL/2024/828
430 19616 ORIKAM HEALTHCARE INDIA PRIVATE LIMITED Manufacturer & Packers 05/02/2024 GOI/HR/2024/827
431 19615 PLANET SAFE Importers 05/02/2024 GOI/MH/2024/826
432 19614 OM INTERNATIONAL Importers 05/02/2024 GOI/KA/2024/825
433 19613 NAGMAN FLOW-LEVEL SYSTEMS AND SOLUTIONS LLP Importers 05/02/2024 GOI/TN/2024/824
434 19612 5X CART PRIVATE LIMITED Importers 05/02/2024 GOI/KA/2024/823
435 19610 ONETAIL BRANDS TECHNOLOGIES PRIVATE LIMITED Manufacturer & Packers 05/02/2024 GOI/DL/2024/822
436 19609 MEDIGOLD HEALTHCARE PRIVATE LIMITED Importers 05/02/2024 GOI/DL/2024/821
437 19608 AROINDIA ELECTROMECH PRIVATE LIMITED Importers 05/02/2024 GOI/DL/2024/820
438 19607 COMPUTER & CONTROL SYSTEMS Importers 05/02/2024 GOI/DL/2024/819
439 19606 URJABOX POWER TECHNOLOGIES PRIVATE LIMITED Importers 05/02/2024 GOI/DL/2024/818
440 19605 RMS ENGINEERING PRIVATE LIMITED Importers 05/02/2024 GOI/TN/2024/817
441 19604 APJ SGM TECHNOLOGIES PRIVATE LIMITED Importers 05/02/2024 GOI/TN/2024/816
442 19602 HEAVENLY SECRETS PRIVATE LIMITED Importers 05/02/2024 GOI/MH/2024/815
443 19601 ANAND ENTERPRISES Importers 05/02/2024 GOI/MH/2024/814
444 19600 RUDRASUN TECHNOLOGIES LLP Importers 05/02/2024 GOI/DL/2024/813
445 19598 HARESH DILIP ENTERPRISE Importers 05/02/2024 GOI/MH/2024/812
446 19597 TRU AGRO Importers 05/02/2024 GOI/MH/2024/811
447 19596 QUANTUM AUTOMATION Importers 05/02/2024 GOI/GJ/2024/810
448 19594 SHREE YASHODA JEE Manufacturer & Packers 05/02/2024 GOI/UP/2024/809
449 19593 SISCO ISPAT Importers 05/02/2024 GOI/KA/2024/808
450 19592 M/S BEECO STORAGE SYSTEMS Importers 05/02/2024 GOI/UP/2024/807
451 19589 DEVIDAYAL SOLAR SOLUTIONS PRIVATE LIMITED Importers 05/02/2024 GOI/MH/2024/806
452 19588 FIZU TECHNOLOGIES PRIVATE LIMITED Importers 05/02/2024 GOI/RJ/2024/805
453 19587 ERATRONICS PRIVATE LIMITED Importers 05/02/2024 GOI/MH/2024/799
454 19586 INDER PROVISION STORE Packers 05/02/2024 GOI/UP/2024/798
455 19585 ABOTOS ELECTRONICS & COMPUTERS Importers 05/02/2024 GOI/WB/2024/797
456 19582 UNITS CHEMICAL INDIA PRIVATE LIMITED Importers 05/02/2024 GOI/TN/2024/796
457 19581 ACE INFRATECH PRIVATE LIMITED Importers 05/02/2024 GOI/HR/2024/795
458 19580 JAYSHREE MACHINETOOLS PRIVATE LIMITED Importers 05/02/2024 GOI/GJ/2024/794
459 19579 TOKI ENTERPRISES PRIVATE LIMITED Importers 05/02/2024 GOI/UP/2024/793
460 19578 S J K SOLUTIONS Importers 05/02/2024 GOI/HR/2024/792
461 19577 SKYWAY MARKETING PRIVATE LIMITED Packers 05/02/2024 GOI/MH/2024/791
462 19575 CHANDIRAM HAKIKATRAI Importers 05/02/2024 GOI/MH/2024/790
463 19574 NF INFRATECH SERVICE PRIVATE LIMITED Importers 05/02/2024 GOI/DL/2024/789
464 19573 EUROQO INTERNATIONAL LLP Importers 05/02/2024 GOI/GJ/2024/788
465 19572 KDK OVERSEAS Importers 05/02/2024 GOI/GJ/2024/787
466 19568 AMBETRONICS ENGINEERS PRIVATE LIMITED Importers 05/02/2024 GOI/MH/2024/835
467 19559 BENCHMARK TECHNOMATE PRIVATE LIMITED Importers 05/02/2024 GOI/UP/2024/786
468 19556 NISSIN TRADING INDIA PRIVATE LIMITED Importers 05/02/2024 GOI/TN/2024/834
469 19552 M/s Dyson Technology India Private Limited Importers 05/02/2024 GOI/HR/2024/781
470 19506 OZONE SECUTECH PRIVATE LIMITED Importers 05/02/2024 GOI/MH/2024/785
471 19505 ALIGN RETAIL TRADES PRIVATE LIMITED. Manufacturer & Packers 05/02/2024 GOI/MH/2024/833
472 19498 TEK AUTOMOTIVE INDIA PRIVATE LIMITED Importers 05/02/2024 GOI/DL/2024/804
473 19484 NIKITA DISTRIBUTORS Importers 05/02/2024 GOI/MH/2024/802
474 19415 ASTRAL LIMITED Manufacturer & Packers 05/02/2024 GOI/GJ/2024/784
475 19370 MANISHA INTERNATIONAL PRIVATE LIMITED Importers 05/02/2024 GOI/DL/2024/801
476 19281 SRI ARIHANT ENTERPRISES Importers 05/02/2024 GOI/TN/2024/800
477 17624 BRIGHT INTERNATIONAL Importers 05/02/2024 GOI/MH/2024/782
478 19571 KK CONCHEM PRIVATE LIMITED Manufacturer & Packers 02/02/2024 GOI/MH/2024/778
479 19569 DECOR DREAMS Importers 02/02/2024 GOI/JH/2024/780
480 19570 SANSKRITI PACKAGING PRIVATE LIMITED Importers 02/02/2024 GOI/GJ/2024/779
481 19567 GLOBAL PACKAGING AUTOMATION LLP Importers 02/02/2024 GOI/MH/2024/777
482 19566 CROMPTON TRADING COMPANY Importers 02/02/2024 GOI/KA/2024/776
483 19565 VAIBHAV INDUSTRIES Manufacturer & Packers 02/02/2024 GOI/UP/2024/775
484 19564 APT NETWORK PRIVATE LIMITED Importers 02/02/2024 GOI/HR/2024/774
485 19563 MAGPRO INDUSTRIES Importers 02/02/2024 GOI/TN/2024/773
486 19562 ANTONGABRIELLA CONSULTANCY PRIVATE LIMITED Importers 02/02/2024 GOI/TN/2024/772
487 19560 AGS Manufactures and Supplies Importers 02/02/2024 GOI/MH/2024/771
488 19558 HORIZON PACKS PRIVATE LIMITED Importers 02/02/2024 GOI/TN/2024/770
489 19557 SANT AIR SYSTEM Importers 02/02/2024 GOI/PB/2024/769
490 19555 MEGGHA TECHNOLOGIES PRIVATE LIMITED Importers 02/02/2024 GOI/KA/2024/768
491 19554 SAGAR RATNA PRODUCTS PRIVATE LIMITED Manufacturer & Packers 02/02/2024 GOI/RJ/2024/767
492 19553 KAN-THERM INDIA PRIVATE LIMITED Importers 02/02/2024 GOI/MH/2024/766
493 19551 JB EXIM ENTERPRISE Importers 02/02/2024 GOI/GJ/2024/765
494 19527 SEPIO PRODUCTS PRIVATE LIMITED Importers 02/02/2024 GOI/GJ/2024/764
495 19525 GRACE MANUFACTURING & TRADING COMPANY Importers 02/02/2024 GOI/DL/2024/763
496 19509 SPARK VISION Importers 02/02/2024 GOI/MH/2024/759
497 19492 RAPIPAY FINTECH PRIVATE LIMITED Importers 02/02/2024 GOI/DL/2024/762
498 19463 THE BAKE SHOP Manufacturer & Packers 02/02/2024 GOI/DL/2024/761
499 19199 THAKUR TOOLS AND LUBRICANTS Importers 02/02/2024 GOI/RJ/2024/760
500 19549 BLAZE ANALYTICAL INSTRUMENTS LLP Importers 01/02/2024 GOI/DL/2024/758
501 19548 ZEALTEK ENTERPRISES PRIVATE LIMITED Importers 01/02/2024 GOI/GA/2024/757
502 19547 KAPCHA ACCESSORIES PRIVATE LIMITED Importers 01/02/2024 GOI/HR/2024/756
503 19546 STELATOES SHOES AND ACCESSORIES PRIVATE LIMITED Packers 01/02/2024 GOI/DL/2024/755
504 19545 M/S GLOBAL INFOTECH SOLUTIONS Importers 01/02/2024 GOI/HR/2024/754
505 19544 LAKSHMI ENTERPRISES Importers 01/02/2024 GOI/PB/2024/753
506 19543 PRAMADHA FOOD PRODUCTS PRIVATE LIMITED Manufacturer & Packers 01/02/2024 GOI/UP/2024/752
507 19542 ESOTERIC LUXE IDEAS (OPC) PRIVATE LIMITED Importers 01/02/2024 GOI/DL/2024/751
508 19541 OLLIE INTERNATIONAL Importers 01/02/2024 GOI/GJ/2024/750
509 19540 JANKI JI FOOD INDIA Packers 01/02/2024 GOI/UP/2024/749
510 19539 FERRY LINE Importers 01/02/2024 GOI/GJ/2024/748
511 19538 KLED IOT SENSING PRIVATE LIMITED Importers 01/02/2024 GOI/MH/2024/747
512 19537 MEMTRIX TECHNOLOGIES LLP Importers 01/02/2024 GOI/GJ/2024/746
513 19536 MARK INTERNATIONAL Importers 01/02/2024 GOI/MH/2024/745
514 19534 THE ENGG. SC.APP.WORKS Importers 01/02/2024 GOI/HR/2024/744
515 19533 K R SHIPPING AND LOGISTICS PRIVATE LIMITED Importers 01/02/2024 GOI/MH/2024/743
516 19532 VPMS ENTERPRISES LLP Importers 01/02/2024 GOI/MH/2024/742
517 19531 ZEBRA TECHNOLOGIES INDIA PRIVATE LIMITED Importers 01/02/2024 GOI/KA/2024/741
518 19530 JUPITER PETROTEC PRODUCTS Manufacturer & Packers 01/02/2024 GOI/TN/2024/740
519 19529 SMART PRODUCTS INDIA Importers 01/02/2024 GOI/DL/2024/739
520 19528 SHEETAL WIRELESS TECHNOLOGIES PRIVATE LIMITED Importers 01/02/2024 GOI/MH/2024/738
521 19526 YASH IMPEX Importers 01/02/2024 GOI/MH/2024/737
522 19524 VAISHNAVI INTERNATIONAL Importers 01/02/2024 GOI/MH/2024/736
523 19523 RIYA INTERNATIONAL Importers 01/02/2024 GOI/MH/2024/735
524 19522 HOBBS TECHNO INDIA Importers 01/02/2024 GOI/DL/2024/734
525 19521 SHREENATHJI ELECTRIC Importers 01/02/2024 GOI/GJ/2024/733
526 19520 CARMEL INDUSTRIES LLP Manufacturer & Packers 01/02/2024 GOI/MH/2024/732
527 19519 METSI ENVIRO TECH PRIVATE LIMITED Importers 01/02/2024 GOI/KA/2024/731
528 19518 MINEL INDIA PRIVATE LIMITED Importers 01/02/2024 GOI/UP/2024/730
529 19517 DURACELL INDIA OPERATIONS PRIVATE LIMITED Importers 01/02/2024 GOI/KA/2024/729
530 19516 TULSI Importers 01/02/2024 GOI/KA/2024/728
531 19515 S B MEDICARE PRIVATE LIMITED Importers 01/02/2024 GOI/DL/2024/727
532 19514 MINCOMETSAL Importers 01/02/2024 GOI/KA/2024/726
533 19513 GOMA PROCESS TECHNOLOGIES PRIVATE LIMITED Importers 01/02/2024 GOI/GJ/2024/725
534 19512 ZENITH ENGINEERING & SERVICES Importers 01/02/2024 GOI/KA/2024/724
535 19511 SHRI JAI DURGE INTERNATIONAL Importers 01/02/2024 GOI/HR/2024/717
536 19510 INSURG MEDICAL Importers 01/02/2024 GOI/DL/2024/723
537 19508 OZONE OVERSEAS PRIVATE LIMITED Importers 01/02/2024 GOI/MH/2024/722
538 19491 PARADISE JUICE PRIVATE LIMITED Manufacturer & Packers 01/02/2024 GOI/MH/2024/721
539 19453 ATTAR LOGISTICS PRIVATE LIMITED Manufacturer & Packers 01/02/2024 GOI/PB/2024/720
540 19448 SAMSUNG IREX INDIA LLP Importers 01/02/2024 GOI/HR/2024/719
541 19106 MOTO GARUDA LLP Importers 01/02/2024 GOI/DL/2024/718
542 19507 ALCCOTECH BUILDING MATERIALS PRIVATE LIMITED Manufacturer & Packers 01/02/2024 GOI/MH/2024/716
543 19504 PRIMOCRAFT SOLUTIONS PRIVATE LIMITED Importers 01/02/2024 GOI/KL/2024/715
544 19503 AVISHKAR AGRO TECHNOLOGY LLP Importers 01/02/2024 GOI/MH/2024/714
545 19502 SAGAR RATNA PRODUCTS PRIVATE LIMITED Manufacturer & Packers 01/02/2024 GOI/JH/2024/713
546 19501 BLUESCALE LLP Importers 01/02/2024 GOI/HR/2024/712
547 19500 BLUESCALE LLP Packers 01/02/2024 GOI/HR/2024/711
548 19499 GALDERMA INDIA PRIVATE LIMITED Manufacturer & Packers 01/02/2024 GOI/MH/2024/710
549 19497 TEMFLO SYSTEMS PRIVATE LIMITED Importers 01/02/2024 GOI/UP/2024/709
550 19496 MEGASTAR COOLERS PRIVATE LIMITED Importers 01/02/2024 GOI/HR/2024/708
551 19495 EKVIR ENTERPRISES Importers 01/02/2024 GOI/DL/2024/707
552 19493 WATERWAYS CERAMICA PRIVATE LIMITED Importers 01/02/2024 GOI/MH/2024/706
553 19489 CURTEX FURNISHING PRIVATE LIMITED Importers 01/02/2024 GOI/KA/2024/705
554 19488 EVOLUTIS INDIA PRIVATE LIMITED Importers 01/02/2024 GOI/MH/2024/704
555 19487 BOMBAY STEREO PRIVATE LIMITED Importers 01/02/2024 GOI/MH/2024/703
556 19486 GLOBETREND ESSENTIALS Importers 01/02/2024 GOI/DL/2024/702
557 19485 REHAN SEA FOODS Importers 01/02/2024 GOI/MH/2024/701
558 19480 YOGESH DHAMNIKAR and CO LLP Importers 01/02/2024 GOI/MH/2024/700
559 19478 ACTION INTERNATIONAL PRIVATE LIMITED Manufacturer & Packers 01/02/2024 GOI/DL/2024/699
560 19476 SIRIUS TECHNOLOGIES Importers 01/02/2024 GOI/KA/2024/698
561 19475 POS SOLUTIONS PRIVATE LIMITED Importers 01/02/2024 GOI/MH/2024/697
562 19473 G S HARDWARE ENTERPRISES Importers 01/02/2024 GOI/DL/2024/683
563 19459 SHELL INDIA MARKETS PRIVATE LIMITED Manufacturer & Packers 01/02/2024 GOI/TN/2024/696
564 19458 SHELL INDIA MARKETS PRIVATE LIMITED Importers 01/02/2024 GOI/TN/2024/695
565 19454 IMPORTIKAH Importers 01/02/2024 GOI/KA/2024/694
566 19446 MKH INTERNATIONAL Importers 01/02/2024 GOI/DL/2024/693
567 19440 KPLER BRANDS PRIVATE LIMITED Importers 01/02/2024 GOI/MH/2024/692
568 19350 KIMPEX FLOW PRIVATE LIMITED Importers 01/02/2024 GOI/DL/2024/691
569 19152 COMPETENT PNEUMATIC PRIVATE LIMITED Importers 01/02/2024 GOI/DL/2024/690
570 19483 OMME ELECTROMECH PRIVATE LIMITED Importers 30/01/2024 GOI/UP/2024/689
571 19482 ROTAREX ENGINEERING PRIVATE LIMITED Importers 30/01/2024 GOI/MH/2024/688
572 19481 PAPER TRADE LINKS Importers 30/01/2024 GOI/MP/2024/687
573 19479 HTILOMINLO STEEL PRIVATE LIMITED Importers 30/01/2024 GOI/HR/2024/686
574 19477 AADINATH GLOBAL PRIVATE LIMITED Importers 30/01/2024 GOI/GJ/2024/685
575 19474 G.K ELECTRICALS Importers 30/01/2024 GOI/KA/2024/684
576 19472 MILLENNIUM GRANITO INDIA PRIVATE LIMITED Manufacturer & Packers 30/01/2024 GOI/GJ/2024/682
577 19470 FLUIDRA INDIA PRIVATE LIMITED Importers 30/01/2024 GOI/MH/2024/681
578 19469 PIONEER ENGINEERS Importers 30/01/2024 GOI/GJ/2024/680
579 19468 JAMSFA SOLUTIONS PRIVATE LIMITED Importers 30/01/2024 GOI/MH/2024/679
580 19467 FLUIDRA INDIA PRIVATE LIMITED Importers 30/01/2024 GOI/KA/2024/678
581 19466 ASHER INFRA Importers 30/01/2024 GOI/TS/2024/677
582 19465 IQH2 INNOVATIONS INDIA Importers 30/01/2024 GOI/DL/2024/676
583 19462 TORC STAR BOLTING TOOLS Importers 30/01/2024 GOI/MH/2024/675
584 19461 MULTIVAC LARAON INDIA PRIVATE LIMITED Importers 30/01/2024 GOI/HR/2024/674
585 19460 FLUIDRA INDIA PRIVATE LIMITED Importers 30/01/2024 GOI/TN/2024/673
586 19457 POWER SUTRA CLOTHING PRIVATE LIMITED Manufacturer & Packers 30/01/2024 GOI/HR/2024/672
587 19456 PRECISE MEASUREMENT TECHNOLOGIES Importers 30/01/2024 GOI/KA/2024/671
588 19455 FRANS GLOBAL INFOTECH PRIVATE LIMITED Importers 30/01/2024 GOI/DL/2024/670
589 19452 ICFORTUNE ENTERPRISES Importers 30/01/2024 GOI/TS/2024/669
590 19377 HINDUSTAN FOODS LIMITED Manufacturer & Packers 30/01/2024 GOI/TS/2024/668
591 19313 SNIGGEY GREEN PRIVATE LIMITED Packers 30/01/2024 GOI/DL/2024/667
592 19262 MOMENTUM TECHSYS PRIVATE LIMITED Importers 30/01/2024 GOI/UP/2024/666
593 19110 VOX SOUND Importers 30/01/2024 GOI/MH/2024/665
594 19051 GREEN2GO PRIVATE LIMITED Importers 30/01/2024 GOI/MH/2024/664
595 18477 JB EXIM ENTERPRISE Importers 30/01/2024 GOI/GJ/2024/663
596 18335 KACHHUA SOLUTIONS PRIVATE LIMITED Importers 30/01/2024 GOI/GJ/2024/662
597 19451 HEMNAV VENTURES PRIVATE LIMITED Importers 30/01/2024 GOI/MH/2024/638
598 19450 ACE TRADERS Importers 30/01/2024 GOI/MH/2024/637
599 19449 VIRAP SALES AND SERVICES Importers 30/01/2024 GOI/GJ/2024/636
600 19445 SWAROVSKI TRADING INDIA PRIVATE LIMITED Importers 30/01/2024 GOI/DL/2024/635
601 19444 SWAROVSKI TRADING INDIA PRIVATE LIMITED Packers 30/01/2024 GOI/DL/2024/634
602 19442 CALCOM VISION LIMITED Manufacturer & Packers 30/01/2024 GOI/UP/2024/633
603 19441 CHETAN ENTERPRISES Importers 30/01/2024 GOI/DL/2024/632
604 19439 DAP GLOBAL LLP Importers 30/01/2024 GOI/MP/2024/631
605 19438 AVIVAH INDIA Importers 30/01/2024 GOI/WB/2024/630
606 19437 A.E.W. Importers 30/01/2024 GOI/GJ/2024/629
607 19436 BLUEBIRD EV MOTORS Importers 30/01/2024 GOI/DL/2024/628
608 19435 SA LUXURE LIVING (OPC) PRIVATE LIMITED Importers 30/01/2024 GOI/UP/2024/627
609 19434 GALAXY DISTRIBUTION Importers 30/01/2024 GOI/MH/2024/626
610 19433 CHROME RO SYSTEM Manufacturer & Packers 30/01/2024 GOI/MH/2024/625
611 19432 JOSHI THERMAL Importers 30/01/2024 GOI/MH/2024/624
612 19431 ZEQON Importers 30/01/2024 GOI/CG/2024/623
613 19430 SIAMO LIFESTYLE PRIVATE LIMITED Importers 30/01/2024 GOI/MH/2024/622
614 19429 GLOBAL ENTERPRISES Importers 30/01/2024 GOI/KA/2024/639
615 19428 PRITI SALES CORPORATION Importers 30/01/2024 GOI/TN/2024/640
616 19427 BIG BROTHER Manufacturer & Packers 30/01/2024 GOI/DL/2024/641
617 19426 COMMUNETIQUES Importers 30/01/2024 GOI/MH/2024/642
618 19425 AADHAVAN ENTERPRISES Importers 30/01/2024 GOI/TN/2024/643
619 19424 BAMBINO AGRO INDUSTRIES LIMITED Manufacturer & Packers 30/01/2024 GOI/HR/2024/644
620 19423 RECICLAR TECHNOLOGIES PRIVATE LIMITED Importers 30/01/2024 GOI/GJ/2024/645
621 19421 GAYATRI EXPORTS Importers 30/01/2024 GOI/GJ/2024/646
622 19420 DOLPHIN E-CAROBAR PRIVATE LIMITED Importers 30/01/2024 GOI/UP/2024/647
623 19419 HILBERT INNOVATIONS PRIVATE LIMITED Importers 30/01/2024 GOI/HR/2024/648
624 19418 LOGICAL LEARNING COMPANY PRIVATE LIMITED Importers 30/01/2024 GOI/DL/2024/649
625 19414 GAYATRI EXIM Importers 30/01/2024 GOI/GJ/2024/650
626 19413 AAXHA1173P Importers 30/01/2024 GOI/RJ/2024/651
627 19412 BLOOMART STATIONERY PRIVATE LIMITED Importers 30/01/2024 GOI/DL/2024/652
628 19411 JANE AEROSPACE PRIVATE LIMITED Importers 30/01/2024 GOI/KA/2024/653
629 19410 NUMI INTERNATIONAL PRIVATE LIMITED Importers 30/01/2024 GOI/HR/2024/654
630 19409 DIPANKAR BANERJEE Importers 30/01/2024 GOI/WB/2024/655
631 19408 NEJYRA TECHNICAL SERVICES PRIVATE LIMITED Importers 30/01/2024 GOI/MH/2024/656
632 19407 K B POLYTECH PRIVATE LIMITED Importers 30/01/2024 GOI/HR/2024/657
633 19405 LOTUS LIGHTING TECHNIK INDIA PRIVATE LIMITED Importers 30/01/2024 GOI/MH/2024/658
634 19402 OLGA ENTERPRISES Importers 30/01/2024 GOI/MH/2024/659
635 19216 J V CREATIONS Importers 30/01/2024 GOI/DL/2024/660
636 18509 Dyson Technology India Private Limited Importers 30/01/2024 GOI/HR/2024/661
637 19365 SVAH COSMETICS PRIVATE LIMITED Importers 29/01/2024 GOI/MH/2024/586
638 19366 M.S. ASSOCIATES Importers 29/01/2024 GOI/DL/2024/587
639 19367 SAM INTERNATIONAL Importers 29/01/2024 GOI/DL/2024/588
640 19368 KAIRAWI NUTRIENTS PRIVATE LIMITED Manufacturer & Packers 29/01/2024 GOI/UP/2024/589
641 19369 THIRUPATHI RAJA Packers 29/01/2024 GOI/TN/2024/590
642 19371 PACIFIC OVERSEAS Importers 29/01/2024 GOI/GJ/2024/591
643 19372 INNOMATIC RESOURCES PRIVATE LIMITED Importers 29/01/2024 GOI/HR/2024/592
644 19373 AVANTI PET CARE PRIVATE LIMITED Importers 29/01/2024 GOI/TS/2024/593
645 19374 SOBHA HIGHRISE VENTURES PRIVATE LIMITED Importers 29/01/2024 GOI/KA/2024/594
646 19375 HOUSE OF MASABA LIFESTYLE PRIVATE LIMITED Importers 29/01/2024 GOI/MH/2024/595
647 19376 Intelitech Electronics Importers 29/01/2024 GOI/KL/2024/596
648 19378 BALAJI MOBITECH PRIVATE LIMITED Importers 29/01/2024 GOI/UP/2024/597
649 19379 HOUSE OF MASABA LIFESTYLE PRIVATE LIMITED Manufacturer & Packers 29/01/2024 GOI/MH/2024/598
650 19380 SENSEBIG LLP Importers 29/01/2024 GOI/HR/2024/599
651 19381 SRI GANGA IRRIGATIONS Importers 29/01/2024 GOI/KA/2024/600
652 19382 MAHAYCO ENTERPRISES Importers 29/01/2024 GOI/DL/2024/601
653 19383 SENSES ELECTRONICS PRIVATE LIMITED Importers 29/01/2024 GOI/MH/2024/602
654 19384 SIRIUS TECHNOLOGIES Importers 29/01/2024 GOI/KA/2024/603
655 19385 CREATIVE IMPEX Importers 29/01/2024 GOI/GJ/2024/604
656 19386 NEW BALANCE INDIA PRIVATE LIMITED Importers 29/01/2024 GOI/MH/2024/605
657 19387 FASTWELL HEALTHCARE PRIVATE LIMITED Importers 29/01/2024 GOI/KA/2024/606
658 19388 ADITYA BIRLA FASHION AND RETAIL LIMITED Importers 29/01/2024 GOI/KA/2024/607
659 19390 ADITYA BIRLA FASHION AND RETAIL LIMITED Manufacturer & Packers 29/01/2024 GOI/KA/2024/608
660 19391 IMPORTIKAH Importers 29/01/2024 GOI/KA/2024/609
661 19392 GREATER BAY COMMERCE LLP Importers 29/01/2024 GOI/MH/2024/610
662 19393 LUMILEDS INDIA PRIVATE LIMITED Importers 29/01/2024 GOI/HR/2024/611
663 19394 PRISM MEDICAL Importers 29/01/2024 GOI/DL/2024/612
664 19395 SIMRAN IMPEX Importers 29/01/2024 GOI/DL/2024/613
665 19396 NEXUS SAFETY SOLUTIONS PRIVATE LIMITED Importers 29/01/2024 GOI/KA/2024/614
666 19397 WATTHUT ELECTRONICS PRIVATE LIMITED Importers 29/01/2024 GOI/UP/2024/615
667 19398 CARNATION CREATIONS PRIVATE LIMITED Importers 29/01/2024 GOI/TN/2024/616
668 19399 INNOMATIC RESOURCES PRIVATE LIMITED Manufacturer & Packers 29/01/2024 GOI/HR/2024/617
669 19400 SANJEEV AGRO VET PRIVATE LIMITED